Find Yaogan 30 hao 02 zu 01 xing

NORAD ID: 43028 Int'l Des: 2017-075 Owner: ZLZB Country: CN Constellation: yaogan operational
LEOCIRCULAR

リアルタイム位置

3D地球を読み込み中...

Yaogan 30 hao 02 zu 01 xingについて

説明を読み込み中...

次回通過

Passes for default location (London). Set your location on the main map for personalized predictions.

高度履歴

Loading altitude history...

軌道要素

1 43028U 17075A 26106.95582513 .00001931 00000-0 14463-3 0 9995
2 43028 34.9949 283.7227 0001115 142.7651 217.3135 15.02506189458031
Epoch: Apr 16, 2026 • Age: 21 hours

現在のステータス

高度 559.2 km
速度 7.59 km/s
衛星直下点 32.19°N, 163.75°W
打ち上げ日 Nov 24, 2017
運用期間 8.3 years
タイプ military

技術仕様

分類 Payload
質量 500.00 kg
乾燥質量 500.00 kg
総質量 500.00 kg
長さ 0.50 m
直径 0.50 m
スパン 1.00 m
形状 Box + 2 Pan
製造者 SECM
フェーズステータス In Orbit
所有者/国 ZLZB/CN

Most Searched